Location: Bacharowice
(49.9333°N, 19.5833°E)
Time: 04:01:32
(UTC+00:00)

Cosmos 1844 Rocket - Pass Details

Date: 11 May 2021
Orbit: 823 x 846 km, 71.0° (Epoch: 22 June)

Event Time Altitude Azimuth Distance (km) Brightness Sun altitude
Rises 18:39:15 0° 205° (SSW) 3,347 5.7 -4.1°
Reaches altitude 10° 18:41:40 10° 204° (SSW) 2,419 5.0 -4.4°
Maximum altitude 18:47:13 85° 117° (ESE) 837 2.7 -5.1°
Drops below altitude 10° 18:52:50 10° 30° (NNE) 2,445 5.2 -5.8°
Sets 18:55:17 0° 30° (NNE) 3,386 5.9 -6.2°
